Location: ?????????
(38.4921°N, 22.9787°E)
Time: 04:27:48
(UTC+00:00)

Cosmos 1898 Rocket - Pass Details

Date: 08 December 2025
Orbit: 749 x 779 km, 74.0° (Epoch: 21 January)

Event Time Altitude Azimuth Distance (km) Brightness Sun altitude
Exits shadow 04:02:20 17° 332° (NNW) 1,843 5.1 -17.2°
Maximum altitude 04:06:16 63° 255° (WSW) 857 3.5 -16.5°
Drops below altitude 10° 04:11:27 10° 175° (S) 2,309 6.3 -15.5°
Sets 04:13:50 0° 172° (S) 3,236 7.1 -15.1°
